Theta_e
296 296 291 287 287 287 287 288 289 292 287 287 292 292 294 297 295 293 295 295 294 293 295 295 295 296 296 297 297 298 300 300 300 300 299 299 298 299 299 299 297 296 296 295
297 292 287 286 285 286 288 288 290 291 287 286 290 288 293 293 292 292 293 293 293 293 292 293 294 295 296 296 299 299 298 298 299 299 299 297 297 298 297 298 297 296 295 293
295 288 285 285 286 288 291 288 287 285 287 287 285 292 289 288 288 288 290 292 292 292 292 292 293 294 295 298 299 299 297 297 298 297 298 297 297 296 296 297 297 295 293 292
290 287 286 286 286 286 287 285 283 283 284 286 286 287 292 289 286 287 289 289 290 291 292 292 293 293 296 299 300 298 297 297 296 297 296 296 295 294 296 295 295 293 292 291
289 287 287 288 286 285 288 284 284 282 281 280 284 284 293 288 286 286 288 289 291 292 291 292 292 295 298 299 300 299 297 296 296 296 295 295 294 295 295 294 292 293 292 292
286 285 286 286 285 284 285 285 283 282 283 284 280 283 292 289 286 286 286 288 290 291 291 292 294 297 298 299 299 299 296 296 295 295 293 293 293 292 292 292 292 292 291 290
290 287 285 284 287 286 287 289 288 287 286 287 280 281 291 290 287 287 287 288 289 290 292 293 295 296 297 298 298 297 295 295 294 294 292 290 291 290 290 291 290 289 289 289
289 288 286 283 284 285 284 284 286 280 282 284 280 285 292 287 287 287 288 290 292 293 294 295 296 297 297 296 296 295 295 294 294 293 293 291 290 291 290 289 288 288 288 287
290 288 282 281 282 283 284 286 282 280 273 279 286 289 289 286 285 286 289 291 292 293 294 295 295 296 296 296 295 295 294 294 294 293 292 292 291 290 289 288 288 288 287 286
288 288 285 280 282 282 284 283 283 283 279 278 285 283 288 288 285 287 289 290 292 293 293 294 294 294 295 295 295 295 294 293 293 292 292 290 290 289 288 287 287 287 286 285
287 288 286 283 284 286 281 283 280 280 282 281 280 285 293 290 289 288 290 292 293 293 293 293 293 294 293 294 294 293 293 292 292 291 291 290 289 288 287 286 287 286 285 284
284 288 285 289 276 274 279 285 286 284 282 281 280 283 288 288 286 286 288 290 292 293 293 292 292 292 292 293 293 292 292 291 290 290 289 289 287 287 286 286 286 285 284 284
285 288 283 286 278 276 280 281 282 280 283 282 281 286 288 285 286 285 286 290 291 292 291 290 291 291 291 292 291 291 290 289 289 288 288 287 287 286 286 286 286 285 284 284
288 287 287 284 288 291 282 280 280 282 282 285 285 286 289 291 289 289 289 288 288 287 288 288 287 289 290 290 289 289 288 288 288 287 286 286 286 286 286 286 285 284 284 283
286 281 285 287 290 289 286 285 285 279 284 282 285 285 288 290 287 287 284 285 286 287 287 287 286 288 288 287 287 287 288 288 287 286 285 285 286 286 285 284 284 284 283 282
282 281 283 280 285 284 282 284 284 284 285 284 284 283 289 287 282 284 285 283 283 284 285 285 285 286 286 286 286 286 286 287 287 285 284 285 285 285 284 284 283 283 282 282
279 279 279 280 283 282 279 281 283 283 279 285 280 286 281 285 284 286 285 284 284 285 285 285 285 285 285 285 285 285 286 286 285 285 284 284 284 283 283 283 283 282 282 282
279 278 279 278 280 276 286 281 281 282 283 281 282 282 280 282 284 283 284 282 285 285 285 285 285 284 285 285 285 285 285 284 284 283 283 284 283 282 283 282 282 282 282 282
284 281 279 278 279 284 285 282 279 279 284 283 282 283 285 282 281 286 285 285 285 285 285 285 285 284 282 282 284 283 283 283 283 283 283 283 283 282 282 281 281 282 281 281
280 282 280 277 275 275 283 282 282 280 279 281 281 284 284 282 281 284 287 285 285 285 285 283 284 282 280 284 285 283 283 283 282 283 283 283 283 281 280 281 280 281 281 280
276 277 276 277 277 281 281 282 281 276 279 283 283 285 285 283 285 285 287 286 285 285 284 285 284 283 282 283 283 281 282 281 283 283 283 282 282 281 280 280 279 279 278 278
277 276 275 277 275 273 282 281 280 284 287 286 287 286 284 284 285 285 286 285 285 284 284 284 282 282 282 282 280 279 279 282 282 282 282 281 281 280 279 278 278 278 277 277
277 282 281 279 281 285 284 284 286 287 286 286 285 285 285 284 285 286 285 285 284 284 283 283 281 280 280 280 280 278 280 282 282 281 280 280 280 279 278 276 276 277 277 277
282 283 280 281 286 285 286 287 287 288 286 286 286 285 286 284 285 285 285 284 283 282 281 282 280 278 278 280 280 281 280 281 280 279 279 279 277 277 277 278 277 277 277 277
284 283 283 282 285 284 286 286 286 287 286 286 287 287 286 285 285 284 282 282 282 281 281 280 278 277 277 279 279 279 280 280 278 278 278 277 276 276 276 276 276 276 278 278
285 283 280 278 283 282 283 286 286 285 286 286 285 284 285 283 282 282 280 281 280 278 279 277 276 276 276 276 276 277 278 278 277 276 276 276 276 276 276 276 276 280 280 281
Wind_Speed
5 5 5 4 4 2 2 6 12 10 2 8 10 18 22 16 15 18 19 18 16 16 14 11 10 8 7 5 4 3 4 5 4 3 3 3 3 3 3 1 2 3 3 5
2 4 1 1 1 3 4 8 7 9 0 8 12 24 23 12 11 12 15 16 17 19 14 13 11 9 8 7 5 5 4 3 3 3 2 3 3 3 3 2 2 2 3 4
4 4 0 2 2 6 4 5 4 7 13 5 14 11 2 4 3 1 6 10 14 18 18 15 12 11 9 7 7 5 3 3 3 3 3 3 4 4 4 4 3 4 6 6
5 1 1 2 2 3 6 1 4 11 9 6 6 8 2 2 2 1 3 9 13 15 14 12 13 12 10 7 6 4 1 2 3 4 4 5 5 5 3 4 4 4 6 6
2 1 1 3 2 1 5 4 9 3 3 4 2 3 2 1 4 2 2 9 10 11 12 11 12 10 8 7 6 4 1 2 3 4 4 4 5 4 4 4 7 7 6 8
3 1 2 4 3 3 8 5 3 2 3 3 2 3 3 0 2 3 4 7 9 10 10 10 10 8 7 6 5 3 1 3 4 4 4 4 5 5 5 6 7 7 7 6
2 2 2 2 4 3 3 5 5 3 2 3 4 6 7 2 3 4 8 8 8 9 11 10 9 7 6 6 4 0 2 3 4 4 4 3 5 5 6 7 7 9 8 7
3 2 1 4 3 2 4 1 2 7 5 7 3 6 2 4 5 2 6 8 8 8 7 8 7 7 6 5 3 2 4 5 5 5 5 4 5 4 5 6 6 7 8 8
2 3 3 3 1 3 3 1 2 1 2 4 4 6 6 1 3 7 8 8 8 8 7 6 5 5 5 2 2 4 6 6 6 6 5 5 5 6 7 9 8 8 9 8
2 6 1 3 1 4 1 3 2 1 4 6 5 5 10 2 5 8 11 11 9 7 6 5 3 1 1 2 3 5 6 7 7 7 6 5 6 8 8 8 10 10 10 10
2 1 3 2 5 2 4 2 1 3 3 4 7 4 2 3 4 11 12 10 9 9 7 5 4 3 4 5 5 6 6 7 7 7 7 7 8 9 9 9 10 10 11 11
2 1 5 8 3 1 2 2 4 4 4 5 4 10 2 2 3 3 6 7 12 11 9 5 5 5 6 6 5 6 6 6 7 7 8 9 9 9 10 10 11 10 12 11
6 2 7 4 3 2 5 5 3 0 0 11 9 7 2 2 3 6 7 9 10 11 10 7 7 6 6 6 6 7 6 7 6 6 8 10 10 10 11 12 12 11 12 12
6 3 10 13 15 3 4 7 8 9 7 15 17 23 17 7 7 6 6 8 8 4 4 5 4 6 4 5 6 7 7 6 7 8 9 10 11 11 11 12 12 12 12 13
4 8 15 20 21 14 13 15 15 17 22 17 26 19 21 13 5 9 4 5 5 4 2 1 2 4 6 5 5 7 8 8 8 9 10 11 11 11 11 12 13 12 13 12
3 5 4 6 17 15 16 18 21 22 23 20 23 27 19 9 2 2 4 2 4 4 5 4 3 6 7 8 8 7 9 10 9 10 12 11 11 11 12 12 13 13 13 14
6 4 3 9 2 6 9 16 17 5 3 6 11 10 3 1 5 4 4 2 3 2 1 1 3 5 6 8 8 9 10 10 11 12 12 12 12 13 13 13 13 14 15 14
7 4 2 6 2 10 2 2 1 9 6 12 9 5 2 5 8 9 5 2 5 4 3 4 5 6 7 8 9 10 10 10 11 12 13 13 13 14 14 14 15 15 14 15
5 5 4 5 8 16 10 3 5 6 4 5 9 4 4 3 4 2 3 2 2 3 5 7 7 8 7 10 10 9 10 11 12 14 14 13 13 14 15 16 16 15 14 14
4 4 6 3 7 13 7 3 2 1 5 5 2 3 7 1 8 3 2 1 4 6 6 7 7 7 7 8 8 10 12 13 14 14 15 14 13 15 16 17 17 15 15 15
3 3 9 10 8 7 5 3 1 5 4 3 4 8 12 5 3 2 6 5 5 6 7 6 8 10 10 9 8 13 14 14 15 15 15 14 14 15 16 17 15 14 14 14
3 4 5 4 6 6 3 1 4 7 9 13 12 6 1 3 4 8 8 6 6 8 10 10 11 13 12 9 8 12 13 14 16 16 16 15 15 12 12 16 14 14 13 13
5 6 4 8 7 3 2 8 10 3 10 11 3 4 3 7 9 8 6 5 7 9 11 10 10 14 13 9 8 12 14 14 15 16 15 14 15 14 14 14 13 10 11 10
6 4 5 5 5 12 11 12 10 12 7 4 1 6 9 10 11 12 10 7 9 10 10 10 11 12 15 11 11 11 12 15 14 15 15 13 13 14 12 9 9 9 10 10
8 1 9 16 12 10 7 7 10 8 5 7 7 8 10 11 13 10 9 10 10 10 12 11 11 13 15 14 14 13 13 14 14 13 12 12 10 11 10 10 9 9 11 11
3 2 3 5 7 2 4 9 7 7 10 11 9 10 9 6 10 10 11 10 11 12 12 13 13 13 14 14 14 13 12 13 13 13 11 10 9 9 9 9 10 15 18 22
Wind_Direction
28 55 40 35 24 27 314 283 289 289 24 307 274 279 273 260 236 229 228 217 216 203 192 185 183 177 165 144 131 85 40 25 357 329 303 283 284 256 245 269 309 306 320 325
164 63 58 309 296 291 279 295 292 281 278 314 303 285 283 271 238 230 226 219 211 199 186 185 180 173 173 145 131 109 76 30 4 309 311 297 308 289 289 284 287 300 309 328
56 74 173 240 246 326 270 258 296 288 319 259 300 270 178 144 169 226 232 224 200 192 185 180 176 171 159 157 148 126 68 32 29 333 278 259 254 242 234 214 294 330 317 319
65 106 249 241 270 317 296 65 298 305 332 313 2 291 227 130 197 296 193 181 181 179 178 169 169 165 165 159 150 131 100 42 20 356 296 270 281 289 309 302 306 304 307 312
76 327 311 249 4 283 328 323 302 289 270 303 140 256 266 176 222 187 151 181 173 175 171 166 165 158 157 158 168 162 146 60 26 354 317 290 278 294 305 299 305 310 313 315
83 80 340 345 294 246 316 289 237 207 234 242 106 323 275 333 331 162 151 167 170 169 164 156 157 160 166 163 170 188 120 38 17 349 331 299 288 295 300 310 310 314 313 312
165 156 114 336 290 197 313 306 310 297 267 339 150 267 278 0 15 300 171 159 153 153 159 160 170 181 179 182 187 201 5 342 336 334 325 299 287 291 292 301 304 307 307 305
325 244 20 9 51 333 22 26 309 300 311 327 141 248 20 30 340 275 155 144 144 156 165 177 181 186 186 192 205 314 334 317 318 322 309 274 267 276 285 289 294 293 294 296
279 252 122 49 93 336 85 259 25 228 165 259 283 275 177 342 99 151 159 170 175 179 184 191 188 195 197 207 336 329 310 306 301 300 287 255 251 276 288 288 292 291 289 286
132 289 57 106 158 77 351 87 223 152 290 277 244 279 272 348 187 187 198 198 192 189 198 201 209 270 246 229 275 291 295 291 292 290 292 277 286 291 284 283 285 284 285 286
129 279 123 186 196 159 149 190 130 299 263 284 301 237 173 212 229 211 215 206 208 214 217 217 231 261 264 245 254 293 286 281 293 298 299 281 291 290 279 275 280 282 284 281
123 186 261 284 93 18 307 251 209 229 210 235 272 273 88 310 277 235 213 221 228 228 227 220 255 282 272 255 265 291 287 293 299 296 293 281 282 275 270 269 272 272 271 272
182 180 305 226 149 171 220 187 233 70 302 231 267 256 171 197 201 228 229 237 243 243 214 245 297 282 282 272 300 300 299 297 298 282 275 272 272 272 272 273 270 269 272 271
161 231 217 256 273 256 195 210 217 210 233 268 243 274 267 269 245 263 255 255 256 241 241 270 280 275 280 304 303 297 292 283 280 276 281 282 279 278 276 275 272 270 269 270
210 238 244 251 271 280 266 257 232 213 240 251 275 282 280 292 302 305 281 288 304 324 7 347 306 322 317 309 293 282 283 288 289 289 286 279 282 280 278 274 273 270 265 264
186 263 266 255 254 256 262 261 252 248 253 254 267 274 288 307 336 278 297 353 355 345 331 326 295 310 319 324 318 307 295 287 280 273 273 283 286 286 284 283 280 274 269 265
181 228 219 267 42 291 252 236 241 233 231 225 235 249 50 300 310 296 331 22 310 226 217 360 310 298 299 295 286 280 290 294 283 279 283 287 287 287 287 286 281 275 269 268
176 195 216 290 269 254 319 166 230 209 234 216 270 263 261 277 287 302 258 185 313 347 333 293 268 270 277 285 291 290 286 279 281 284 289 290 287 286 290 287 281 277 273 269
233 178 260 262 256 289 286 168 169 184 272 227 248 325 276 330 290 166 89 210 236 278 276 266 264 269 278 288 290 288 296 294 292 288 290 292 289 292 292 288 286 284 280 274
219 244 210 179 246 274 30 52 69 211 282 29 102 314 304 25 289 98 290 230 282 241 252 268 275 260 261 285 303 299 297 299 295 297 298 298 293 291 289 290 290 287 280 277
172 207 237 250 276 276 37 49 15 267 16 294 267 277 294 269 4 5 303 280 238 266 290 304 308 302 296 296 291 295 297 294 294 297 294 295 293 291 292 293 293 286 281 278
220 195 220 227 242 271 158 130 305 344 310 308 289 293 63 50 268 255 250 265 303 313 315 313 303 298 298 286 274 280 282 287 293 297 298 297 295 295 295 292 287 282 278 275
256 221 277 215 281 323 342 303 345 330 288 300 24 54 276 258 253 267 287 286 299 299 294 296 286 292 294 285 260 272 284 297 298 301 299 296 295 298 297 290 285 281 274 272
229 178 232 283 254 340 4 358 335 341 4 45 340 258 263 277 294 293 304 309 304 300 293 291 299 294 302 311 307 294 292 296 301 301 297 297 296 296 292 288 283 280 276 274
287 190 266 280 301 333 8 30 357 350 284 270 277 268 266 278 291 299 299 312 308 304 307 307 307 306 308 310 311 313 307 309 305 303 302 298 297 294 290 281 275 271 271 269
310 301 310 309 6 330 309 2 322 318 323 331 322 316 314 309 300 304 305 313 311 306 310 311 308 306 307 311 308 305 304 304 302 304 306 302 298 294 290 288 288 280 277 280